Terminal Aerodrome Forecast
Issued by NWS State College, PA

Home | Current Version | Previous Version | Text Only | Print | Product List | Glossary On
Versions: 1 2 3 4 5 6 7 8 9 10 11 12 13 14 15 16 17 18 19 20 21 22 23 24 25 26 27 28 29 30 31 32 33 34 35 36 37 38 39 40 41 42 43 44 45 46 47 48 49 50
000
FTUS41 KCTP 292338
TAFIPT
TAF
KIPT 292338Z 3000/3024 35010KT P6SM SCT250
     FM300130 01006KT P6SM SCT250
     FM300400 04003KT P6SM BKN250
     FM301200 09004KT P6SM OVC150
     FM301700 12007KT P6SM BKN050 OVC120
     FM302100 12009KT P6SM -SHRA OVC035=

USA.gov is the U.S. government's official web portal to all federal, state and local government web resources and services.